Location: Juzet
(42.9779°N, 0.7597°E)
Time: 18:56:23
(UTC+00:00)

Cosmos 1833 Rocket - Pass Details

Date: 14 July 2020
Orbit: 832 x 840 km, 71.0° (Epoch: 11 August)

Event Time Altitude Azimuth Distance (km) Brightness Sun altitude
Exits shadow 00:44:56 20° 116° (ESE) 1,839 4.3 -24.7°
Maximum altitude 00:46:01 21° 100° (E) 1,787 4.4 -24.6°
Drops below altitude 10° 00:50:06 10° 53° (NE) 2,448 5.7 -24.5°
Sets 00:53:05 0° 39° (NE) 3,388 6.9 -24.4°
